• In United Kingdom
  • List of Countries
  • For 7 days
  • Water Temperature
  • Satellite Maps
  • Weather Map
  • Weather Widgets
  • user-avatar
    Login

    Hourly Weather Lewis

    Today, 22 January, Monday

    Time Temperature Precipitation Wind Pressure Humidity
    00:00 +4°C° 0 mm 12 mps 734 mmHg 84%
    01:00 +4°C° 0.4 mm 12 mps 734 mmHg 84%
    02:00 +4°C° 0.4 mm 12 mps 734 mmHg 84%
    03:00 +4°C° 0.4 mm 12 mps 735 mmHg 84%
    04:00 +4°C° 0.3 mm 12 mps 735 mmHg 83%
    05:00 +4°C° 0.3 mm 13 mps 735 mmHg 83%
    06:00 +4°C° 0.3 mm 13 mps 735 mmHg 82%
    07:00 +4°C° 0.4 mm 13 mps 736 mmHg 82%
    08:00 +4°C° 0.4 mm 13 mps 736 mmHg 81%
    09:00 +4°C° 0.4 mm 13 mps 737 mmHg 80%
    10:00 +4°C° 0.1 mm 13 mps 738 mmHg 79%
    11:00 +4°C° 0.1 mm 13 mps 738 mmHg 78%
    12:00 +4°C° 0 mm 13 mps 739 mmHg 77%
    13:00 +4°C° 0 mm 12 mps 740 mmHg 77%
    14:00 +4°C° 0 mm 12 mps 740 mmHg 77%
    15:00 +4°C° 0 mm 11 mps 741 mmHg 77%
    16:00 +4°C° 0.1 mm 11 mps 741 mmHg 77%
    17:00 +5°C° 0.1 mm 10 mps 741 mmHg 77%
    18:00 +5°C° 0.1 mm 10 mps 742 mmHg 78%
    19:00 +6°C° 0 mm 10 mps 742 mmHg 80%
    20:00 +6°C° 0 mm 10 mps 741 mmHg 83%
    21:00 +6°C° 0 mm 11 mps 741 mmHg 86%
    22:00 +6°C° 0.1 mm 11 mps 740 mmHg 87%
    23:00 +5°C° 0.1 mm 12 mps 740 mmHg 88%

    Tomorrow, 23 January, Tuesday

    Time Temperature Precipitation Wind Pressure Humidity
    00:00 +5°C° 0.1 mm 13 mps 739 mmHg 89%
    01:00 +5°C° 0.5 mm 13 mps 738 mmHg 89%
    02:00 +5°C° 0.5 mm 14 mps 737 mmHg 89%
    03:00 +5°C° 0.5 mm 14 mps 736 mmHg 90%
    04:00 +5°C° 1.2 mm 13 mps 736 mmHg 91%
    05:00 +6°C° 1.2 mm 11 mps 735 mmHg 93%
    06:00 +6°C° 1.2 mm 10 mps 735 mmHg 95%
    07:00 +6°C° 0.6 mm 9 mps 735 mmHg 93%
    08:00 +6°C° 0.6 mm 8 mps 735 mmHg 92%
    09:00 +6°C° 0.6 mm 7 mps 734 mmHg 90%
    10:00 +6°C° 0.2 mm 7 mps 735 mmHg 87%
    11:00 +6°C° 0.2 mm 8 mps 735 mmHg 84%
    12:00 +6°C° 0.2 mm 8 mps 735 mmHg 82%
    13:00 +5°C° 0.5 mm 8 mps 734 mmHg 82%
    14:00 +5°C° 0.5 mm 9 mps 734 mmHg 81%
    15:00 +5°C° 0.5 mm 10 mps 733 mmHg 81%
    16:00 +4°C° 0.6 mm 11 mps 733 mmHg 78%
    17:00 +4°C° 0.6 mm 12 mps 733 mmHg 75%
    18:00 +4°C° 0.6 mm 12 mps 733 mmHg 72%
    19:00 +3°C° 0.3 mm 12 mps 733 mmHg 70%
    20:00 +3°C° 0.3 mm 13 mps 733 mmHg 68%
    21:00 +3°C° 0.3 mm 13 mps 734 mmHg 66%
    22:00 +3°C° 0.1 mm 12 mps 733 mmHg 68%
    23:00 +3°C° 0.1 mm 11 mps 733 mmHg 69%

    Day after tomorrow, 24 January, Wednesday

    Time Temperature Precipitation Wind Pressure Humidity
    00:00 +3°C° 0.1 mm 10 mps 733 mmHg 70%
    01:00 +3°C° 0.2 mm 10 mps 730 mmHg 74%
    02:00 +3°C° 0.2 mm 9 mps 728 mmHg 77%
    03:00 +3°C° 0.2 mm 9 mps 726 mmHg 81%
    04:00 +3°C° 1.6 mm 10 mps 724 mmHg 78%
    05:00 +3°C° 1.6 mm 11 mps 722 mmHg 75%
    06:00 +3°C° 1.6 mm 12 mps 720 mmHg 72%
    07:00 +3°C° 0.7 mm 14 mps 720 mmHg 73%
    08:00 +2°C° 0.7 mm 15 mps 721 mmHg 74%
    09:00 +2°C° 0.7 mm 17 mps 721 mmHg 74%
    10:00 +3°C° 0.2 mm 14 mps 723 mmHg 73%
    11:00 +3°C° 0.2 mm 12 mps 724 mmHg 71%
    12:00 +3°C° 0.2 mm 10 mps 726 mmHg 70%
    13:00 +3°C° 0.3 mm 9 mps 726 mmHg 70%
    14:00 +4°C° 0.3 mm 8 mps 727 mmHg 70%
    15:00 +4°C° 0.3 mm 7 mps 727 mmHg 70%
    16:00 +4°C° 0.4 mm 7 mps 727 mmHg 71%
    17:00 +4°C° 0.4 mm 7 mps 728 mmHg 72%
    18:00 +4°C° 0.4 mm 7 mps 728 mmHg 73%
    19:00 +4°C° 0.5 mm 8 mps 728 mmHg 72%
    20:00 +4°C° 0.5 mm 8 mps 728 mmHg 71%
    21:00 +3°C° 0.5 mm 9 mps 729 mmHg 70%
    22:00 +4°C° 0.2 mm 8 mps 729 mmHg 70%
    23:00 +4°C° 0.2 mm 8 mps 729 mmHg 71%

    25 January, Thursday

    Time Temperature Precipitation Wind Pressure Humidity
    00:00 +4°C° 0.2 mm 8 mps 730 mmHg 71%
    01:00 +4°C° 0.1 mm 8 mps 730 mmHg 74%
    02:00 +4°C° 0.1 mm 7 mps 730 mmHg 76%
    03:00 +3°C° 0.1 mm 7 mps 730 mmHg 79%
    04:00 +4°C° 0.6 mm 7 mps 730 mmHg 76%
    05:00 +4°C° 0.6 mm 6 mps 730 mmHg 73%
    06:00 +5°C° 0.6 mm 6 mps 730 mmHg 70%
    07:00 +4°C° 0.7 mm 6 mps 730 mmHg 72%
    08:00 +4°C° 0.7 mm 6 mps 731 mmHg 73%
    09:00 +5°C° 0.7 mm 5 mps 731 mmHg 75%
    10:00 +5°C° 0.4 mm 5 mps 732 mmHg 76%
    11:00 +5°C° 0.4 mm 5 mps 732 mmHg 77%
    12:00 +5°C° 0.4 mm 5 mps 733 mmHg 78%
    13:00 +5°C° 0.4 mm 5 mps 734 mmHg 78%
    14:00 +4°C° 0.4 mm 6 mps 735 mmHg 79%
    15:00 +4°C° 0.4 mm 6 mps 736 mmHg 79%
    16:00 +4°C° 0.3 mm 8 mps 737 mmHg 78%
    17:00 +3°C° 0.3 mm 9 mps 738 mmHg 78%
    18:00 +3°C° 0.3 mm 11 mps 740 mmHg 77%
    19:00 +3°C° 0.2 mm 11 mps 741 mmHg 75%
    20:00 +2°C° 0.2 mm 12 mps 743 mmHg 73%
    21:00 +2°C° 0.2 mm 12 mps 744 mmHg 72%
    22:00 0°C° 0.1 mm 12 mps 745 mmHg 70%
    23:00 +1°C° 0.1 mm 11 mps 747 mmHg 68%

    26 January, Friday

    Time Temperature Precipitation Wind Pressure Humidity
    00:00 +1°C° 0.1 mm 10 mps 748 mmHg 66%
    01:00 +1°C° 0.1 mm 10 mps 748 mmHg 65%
    02:00 +1°C° 0.1 mm 10 mps 749 mmHg 65%
    03:00 0°C° 0.1 mm 10 mps 750 mmHg 64%
    04:00 0°C° 0.1 mm 9 mps 750 mmHg 64%
    05:00 0°C° 0.1 mm 9 mps 751 mmHg 64%
    06:00 0°C° 0.1 mm 9 mps 752 mmHg 63%
    07:00 0°C° 0.1 mm 9 mps 752 mmHg 63%
    08:00 0°C° 0.1 mm 8 mps 753 mmHg 63%
    09:00 0°C° 0.1 mm 8 mps 753 mmHg 62%
    10:00 0°C° 0 mm 7 mps 754 mmHg 61%
    11:00 +2°C° 0 mm 6 mps 754 mmHg 60%
    12:00 +2°C° 0 mm 5 mps 755 mmHg 59%
    13:00 +2°C° 0 mm 5 mps 755 mmHg 60%
    14:00 +3°C° 0 mm 4 mps 755 mmHg 61%
    15:00 +3°C° 0 mm 3 mps 755 mmHg 62%
    16:00 +2°C° 0 mm 3 mps 755 mmHg 63%
    17:00 +3°C° 0 mm 2 mps 756 mmHg 64%
    18:00 +3°C° 0 mm 1 mps 756 mmHg 65%
    19:00 +3°C° 0 mm 1 mps 756 mmHg 66%
    20:00 +3°C° 0 mm 2 mps 756 mmHg 67%
    21:00 +3°C° 0 mm 2 mps 756 mmHg 67%
    22:00 +1°C° 0 mm 4 mps 756 mmHg 68%
    23:00 +1°C° 0 mm 5 mps 756 mmHg 69%

    27 January, Saturday

    Time Temperature Precipitation Wind Pressure Humidity
    00:00 +2°C° 0 mm 6 mps 756 mmHg 70%
    01:00 +2°C° 0 mm 7 mps 755 mmHg 74%
    02:00 +1°C° 0 mm 8 mps 754 mmHg 77%
    03:00 +1°C° 0 mm 9 mps 754 mmHg 81%
    04:00 +2°C° 0.4 mm 10 mps 753 mmHg 83%
    05:00 +2°C° 0.4 mm 11 mps 752 mmHg 84%
    06:00 +2°C° 0.4 mm 12 mps 751 mmHg 86%
    07:00 +1°C° 1.6 mm 13 mps 750 mmHg 87%
    08:00 +3°C° 1.6 mm 13 mps 749 mmHg 88%
    09:00 +3°C° 1.6 mm 14 mps 747 mmHg 89%
    10:00 +4°C° 1 mm 13 mps 747 mmHg 90%
    11:00 +5°C° 1 mm 13 mps 747 mmHg 91%
    12:00 +7°C° 1 mm 12 mps 746 mmHg 92%
    13:00 +7°C° 0 mm 12 mps 746 mmHg 90%
    14:00 +7°C° 0 mm 11 mps 747 mmHg 87%
    15:00 +7°C° 0 mm 11 mps 747 mmHg 84%
    16:00 +6°C° 0 mm 11 mps 748 mmHg 84%
    17:00 +6°C° 0 mm 11 mps 748 mmHg 84%
    18:00 +6°C° 0 mm 11 mps 749 mmHg 83%
    19:00 +6°C° 0 mm 11 mps 749 mmHg 83%
    20:00 +6°C° 0 mm 11 mps 749 mmHg 84%
    21:00 +6°C° 0 mm 10 mps 750 mmHg 84%
    22:00 +6°C° 0 mm 10 mps 750 mmHg 85%
    23:00 +6°C° 0 mm 10 mps 750 mmHg 87%
    Show more